Regional Weather Roundup
Issued by NWS

Home | Current Version | Previous Version | Text Only | Print | Product List | Glossary On
Versions: 1 2 3 4 5 6 7 8 9 10 11 12 13 14 15 16 17 18 19 20 21 22 23 24 25 26 27 28 29 30 31 32 33 34 35 36 37 38 39 40 41 42 43 44 45 46 47 48 49 50
000
ASUS44 KFWD 061901
RWRTX
NORTH TEXAS HOURLY WEATHER ROUNDUP
NATIONAL WEATHER SERVICE FORT WORTH TX
200 PM CDT FRI MAY 06 2016

NOTE: "FAIR" INDICATES FEW OR NO CLOUDS BELOW 12,000 FEET WITH NO
SIGNIFICANT WEATHER AND/OR OBSTRUCTIONS TO VISIBILITY.

TXZ118-119-062000-
DALLAS/FORT WORTH METROPLEX

CITY           SKY/WX    TMP DP  RH WIND       PRES   REMARKS
DFW AIRPORT    MOSUNNY   82  46  28 SE10      30.07F
DALLAS LOVE    MOSUNNY   83  48  29 SE9       30.07F
FTW MEACHAM    SUNNY     83  50  31 SE7       30.07F
DAL-EXECUTIVE  SUNNY     81  47  30 E7        30.07F
FTW-ALLIANCE   MOSUNNY   81  51  35 S7        30.07F
FTW-NAS-JRB    MOSUNNY   81  49  32 E6        30.07F
FTW-SPINKS     SUNNY     82  46  28 SE8       30.09F
ARLINGTON      SUNNY     83  50  31 SE9       30.07F
GRAND PRAIRIE  SUNNY     81  46  30 SE5       30.09F
ADDISON        SUNNY     81  46  30 E8        30.08F
MESQUITE       SUNNY     81  48  32 E9        30.09F
LANCASTER      SUNNY     81  44  27 SE8       30.09F
$$

TXZ091>094-102>105-117-120-121-131>134-062000-
NORTH CENTRAL TEXAS

CITY           SKY/WX    TMP DP  RH WIND       PRES   REMARKS
BRIDGEPORT     SUNNY     81  50  33 SE8       30.10F
DECATUR        SUNNY     79  47  32 E8        30.09F
DENTON         SUNNY     80  46  30 SE6       30.08F
MCKINNEY       SUNNY     79  51  37 E8        30.09F
TERRELL        SUNNY     79  48  33 E7        30.09F
WAXAHACHIE     SUNNY     80  53  40 SE5       30.10F
GRANBURY       SUNNY     82  48  31 SE8       30.09F
$$

TXZ083>090-098>101-113>116-127>130-139>142-154-155-062000-
WESTERN NORTH TEXAS

CITY           SKY/WX    TMP DP  RH WIND       PRES   REMARKS
WICHITA FALLS  SUNNY     82  49  31 SE13      30.06F
WF-KICKAPOO    SUNNY     82  48  30 S13G18    30.08F
ABILENE        NOT AVBL
MINERAL WELLS  SUNNY    N/A N/A N/A SE9       30.07F
STEPHENVILLE   SUNNY     82  48  31 E6        30.11F
COMANCHE       SUNNY     80  53  39 SE10      30.08F
BROWNWOOD      SUNNY     82  50  32 S10       30.07F
COLEMAN        SUNNY     83  52  34 SE14      30.07F
$$

TXZ143>147-156>162-174-175-062000-
CENTRAL TEXAS

CITY           SKY/WX    TMP DP  RH WIND       PRES   REMARKS
WACO           SUNNY     81  48  31 VRB3      30.08F
WACO-TSTC      SUNNY     82  48  30 CALM      30.07F
WACO-MCGREGOR  SUNNY     81  50  33 E9        30.08F
HILLSBORO      SUNNY     79  50  36 SE3       30.08F
CORSICANA      SUNNY     81  52  36 E9        30.09F
HEARNE         SUNNY     82  52  35 SE5       30.08F
TEMPLE         SUNNY     81  51  35 VRB5      30.09F
KILLEEN        NOT AVBL
KILLEEN-SKYLRK SUNNY     80  50  34 VRB3      30.09F
HAMILTON       SUNNY     81  52  36 SE9G16    30.10F
LAMPASAS       SUNNY     81  55  40 SE5       30.08F
$$

TXZ095>097-106>112-122>126-135>138-148>153-164>167-062000-
EAST TEXAS

CITY           SKY/WX    TMP DP  RH WIND       PRES   REMARKS
PARIS          SUNNY     75  46  35 CALM      30.10F
MINEOLA        SUNNY     81  50  34 N5        30.10F
TYLER          SUNNY     81  46  29 VRB3      30.08F
LONGVIEW       SUNNY     79  51  37 NW5       30.08F
PALESTINE      SUNNY     80  49  34 CALM      30.09F
JACKSONVILLE   SUNNY     79  49  35 NE3       30.11F
NACOGDOCHES    SUNNY     81  48  32 CALM      30.08F
LUFKIN         SUNNY     80  47  31 VRB3      30.08F
$$

SUPPLEMENTAL OBSERVATIONS (CENTRAL)

CITY           SKY/WX    TMP DP  RH WIND       PRES   REMARKS
$$

SUPPLEMENTAL OBSERVATIONS (WEST)

CITY           SKY/WX    TMP DP  RH WIND       PRES   REMARKS
$$

SUPPLEMENTAL OBSERVATIONS (EAST)

CITY           SKY/WX    TMP DP  RH WIND       PRES   REMARKS
$$

SUPPLEMENTAL OBSERVATIONS ARE A COLLECTION OF AUTOMATED INSTRUMENTS
THAT ARE MAINTAINED BY A VARIETY OF FEDERAL AND STATE AGENCIES.
CERTAIN ELEMENTS...SUCH AS HUMIDITY VALUES AND SUSTAINED WIND
SPEEDS...MAY BE APPROXIMATED.





USA.gov is the U.S. government's official web portal to all federal, state and local government web resources and services.